{"data":{"norad_id":69691,"intl_designator":"2026-145Q","name":"STARLINK-37961","alt_names":[],"object_type":"PAYLOAD","status":"ACTIVE","operator":null,"country":"US","launch_date":"2026-06-25","launch_site_code":"AFWTR","launch_vehicle":null,"mission":null,"orbit_class":"UNKNOWN","rcs_meters":null,"size_class":null,"mass_kg":null,"dimensions":null,"purposes":["comms"],"wikipedia_slug":null,"has_3d_model":false,"image_url":null,"decayed_at":null,"tle_current":{"epoch":"2026-09-20T00:52:09.641280Z","epoch_age_seconds":61757,"freshness":"FRESH","line1":"1 69691U 26145Q   26263.03622270  .00016888  00000+0  52409-3 0  9993","line2":"2 69691  97.2847 109.7318 0001250  97.3323 262.8062 15.33455332 13479","mean_motion":15.33455332,"eccentricity":0.000125,"inclination_deg":97.2847,"raan_deg":109.7318,"arg_perigee_deg":97.3323,"mean_anomaly_deg":262.8062,"bstar":0.00052409,"rev_number":1347,"period_min":93.905571942672,"perigee_km":464.65697770868,"apogee_km":466.36789006715,"semimajor_km":6843.6494338879,"source":"CELESTRAK","updated_at":"2026-09-20T09:00:44.254916Z"}}}